Probability
0 0 0 0 0 0 0 0 0 0 0 0 0 0 0 0 0 0 0 0 0 0 0 0 0 0 0 0 0 0 0 0 0 0 0 1 0 0 0 1 2 3 3
0 0 0 0 0 0 0 0 0 0 0 0 0 0 0 0 0 0 0 0 0 0 0 0 0 0 0 0 0 0 0 0 0 0 1 1 1 1 1 1 2 3 3
0 0 0 0 0 0 0 0 0 0 0 0 0 0 0 0 0 0 0 0 0 0 0 0 0 0 0 0 0 0 0 0 0 0 1 2 2 1 1 1 2 3 3
0 0 0 0 0 0 0 0 0 0 0 0 0 0 0 0 0 0 0 0 0 0 0 0 0 0 0 0 0 0 0 0 0 0 0 1 1 1 1 1 1 3 3
0 0 0 0 0 0 0 0 0 0 0 0 0 0 0 0 0 0 0 0 0 0 0 0 0 0 0 0 0 0 0 0 0 0 0 0 0 0 0 0 1 2 2
0 0 0 0 0 0 0 0 0 0 0 0 0 0 0 0 0 0 0 0 0 0 0 0 0 0 0 0 0 0 0 0 0 0 0 0 0 0 0 0 0 1 1
0 0 0 0 0 0 0 0 0 0 0 0 0 0 0 0 0 0 0 0 0 0 0 0 0 0 0 0 0 0 0 0 0 0 0 0 0 0 0 1 1 0 0
0 0 0 0 0 0 0 0 0 0 0 0 0 0 0 0 0 0 0 0 0 0 0 0 0 0 0 0 0 0 0 0 0 0 0 0 0 0 0 1 1 0 0
0 0 0 0 0 0 0 0 0 0 0 0 0 0 0 0 0 0 0 0 0 0 0 0 0 0 0 0 0 0 0 0 0 0 0 0 0 0 0 1 1 0 1
0 0 0 0 0 0 0 0 0 0 0 0 0 0 0 0 0 0 0 0 0 0 0 0 0 0 0 0 0 0 0 0 0 0 0 0 0 0 0 0 0 1 2
0 0 0 0 0 0 0 0 0 0 0 0 0 0 0 0 0 0 0 0 0 0 0 0 0 0 0 0 0 0 0 0 0 0 0 0 0 0 0 0 0 2 3
0 0 0 0 0 0 0 0 0 0 0 0 0 0 0 0 0 0 0 0 0 0 0 0 0 0 0 0 0 0 0 0 0 0 0 0 0 0 0 0 0 1 2
0 0 0 0 0 0 0 0 0 0 0 0 0 0 0 0 0 0 0 0 0 0 1 0 0 0 0 0 0 0 0 0 0 0 0 0 0 0 0 0 0 1 1
0 0 0 0 0 0 0 0 0 0 0 0 0 0 0 0 0 0 0 0 0 0 0 0 0 0 0 0 0 0 0 0 0 0 0 0 0 0 0 0 0 1 2
0 0 0 0 0 0 0 0 0 0 0 0 0 0 0 0 0 0 0 0 0 0 0 0 0 0 0 0 0 0 0 0 0 0 0 0 0 0 0 0 0 1 1
0 0 0 0 0 0 0 0 0 0 0 0 0 0 0 0 0 0 0 0 0 0 0 0 0 0 0 0 0 0 0 0 0 0 0 0 0 0 0 0 0 0 0
0 0 0 0 0 0 0 0 0 0 0 0 0 0 0 0 0 0 0 0 0 0 0 0 0 0 0 0 0 0 0 0 0 0 0 0 0 0 0 0 0 0 0
0 0 0 0 0 0 0 0 0 0 0 0 0 0 0 0 0 0 0 0 0 0 0 0 1 1 1 1 1 1 1 1 1 1 1 1 0 0 0 0 0 0 0
0 0 0 0 0 0 0 0 0 0 0 0 0 0 0 0 0 0 0 0 0 0 0 0 1 2 2 2 2 2 3 3 3 2 2 2 1 1 0 0 0 0 0
0 0 0 0 0 0 0 0 0 0 0 0 0 0 0 0 0 0 0 0 0 0 0 1 2 3 3 3 3 3 3 3 3 3 3 2 2 1 0 0 0 0 0
0 0 0 0 0 0 0 0 0 0 0 0 0 0 0 0 0 0 0 0 0 0 0 1 2 3 3 2 2 2 2 2 2 2 2 1 1 0 0 0 0 0 0
0 0 0 0 0 0 0 0 0 0 0 0 0 0 0 0 0 0 0 0 0 0 0 1 2 2 1 1 1 1 1 0 1 1 1 0 0 0 0 0 0 0 0
0 0 0 0 0 0 0 0 0 0 0 0 0 0 0 0 0 0 0 0 0 0 0 0 1 1 0 0 0 0 0 0 0 0 0 0 0 0 0 0 0 0 0
0 0 0 0 0 0 0 0 0 0 0 0 0 0 0 0 0 0 0 0 0 0 0 0 0 0 0 0 0 0 0 0 0 0 0 0 0 0 0 0 0 0 0
0 0 0 0 0 0 0 0 0 0 0 0 0 0 0 0 0 0 0 0 0 0 0 0 0 0 0 0 0 0 0 0 0 0 0 0 0 0 0 0 0 0 0
0 0 0 0 0 0 0 0 0 0 0 0 0 0 0 0 0 0 0 0 0 0 0 0 0 0 0 0 0 0 0 0 0 0 0 0 0 0 0 0 0 0 0
Wind_Speed
6 6 5 5 5 5 4 4 5 4 4 4 4 4 3 3 3 2 3 3 3 2 2 2 3 3 2 2 2 2 2 3 2 1 1 1 1 2 1 1 1 2 4
5 5 5 5 5 6 5 5 5 5 5 5 4 4 3 3 3 3 3 3 3 3 2 2 3 2 3 3 3 3 3 3 3 2 1 1 1 1 2 2 2 1 2
4 5 5 6 6 6 6 5 6 5 5 5 5 5 4 4 4 4 4 4 3 3 3 3 3 3 3 3 3 3 3 3 4 3 2 1 1 1 2 2 2 1 2
3 4 5 5 5 6 6 6 6 6 6 6 5 5 5 5 5 5 5 5 4 4 4 4 4 4 4 4 3 4 3 3 4 4 3 2 2 2 2 2 2 2 2
3 4 4 5 5 5 5 6 6 6 7 6 6 6 6 5 4 5 5 5 5 4 5 5 4 4 3 3 3 3 4 4 4 4 4 3 3 3 3 2 2 2 2
2 3 3 4 4 5 5 6 6 6 7 6 7 7 6 5 3 5 7 6 6 5 5 5 5 6 6 7 6 5 5 5 5 4 4 5 4 4 3 3 2 2 2
2 2 2 3 4 5 5 6 6 6 7 7 7 7 8 6 4 6 8 8 7 6 6 5 4 4 6 7 8 10 9 8 7 6 5 5 4 4 4 5 4 4 2
2 2 2 3 4 4 5 5 6 6 6 7 7 8 7 6 6 7 8 10 8 7 6 6 6 6 5 6 6 7 7 8 8 8 6 5 4 3 4 4 3 2 1
3 4 3 3 4 4 5 5 6 6 7 7 7 8 8 8 7 7 8 8 7 8 7 7 7 6 4 5 7 7 7 6 4 3 3 1 1 1 2 3 4 4 3
4 5 4 4 4 5 5 6 5 6 7 7 7 8 9 9 6 8 9 7 8 7 6 6 5 6 4 6 8 7 7 6 5 6 6 6 6 6 6 6 5 4 3
5 5 5 5 5 6 6 5 6 6 6 7 8 8 9 9 7 8 9 8 7 7 6 6 5 7 7 8 9 7 5 5 5 5 4 4 4 4 5 5 4 3 3
5 6 6 6 5 5 6 6 6 6 7 8 8 8 7 8 8 8 10 12 9 9 7 6 4 7 7 8 8 5 4 5 5 5 4 4 4 4 4 4 3 2 2
6 6 6 7 6 6 6 7 6 6 7 7 7 7 7 6 6 8 10 12 12 9 7 5 4 6 8 8 7 7 8 6 6 6 5 5 4 4 4 3 4 3 3
7 6 6 7 7 7 6 6 6 6 7 7 7 8 8 7 7 6 6 8 10 10 8 6 7 6 7 6 7 8 7 6 6 6 5 4 4 4 4 4 4 4 4
8 7 7 6 7 7 7 6 8 8 8 8 8 8 9 9 7 6 7 7 7 8 7 7 8 8 8 8 7 7 7 7 7 6 6 5 5 5 5 4 4 4 4
8 7 6 6 6 7 7 7 8 10 11 12 13 13 11 10 9 9 11 11 9 8 8 9 9 9 9 9 8 8 8 7 7 7 7 6 6 6 6 5 5 5 4
9 8 7 7 7 7 8 8 9 8 10 13 15 15 15 13 12 11 11 11 11 11 10 10 10 9 9 9 8 8 8 7 7 7 7 7 7 6 6 6 6 5 5
10 9 8 8 8 8 8 9 9 10 9 9 10 13 14 14 14 13 11 9 9 10 10 10 10 9 9 9 9 8 8 7 7 7 7 7 7 7 6 6 6 6 5
9 8 8 8 9 9 9 9 9 10 10 10 9 8 9 10 11 11 11 10 10 10 10 10 10 9 9 9 8 8 8 8 8 7 7 8 7 7 7 7 6 7 6
8 10 10 10 10 10 9 9 9 10 10 10 9 9 6 6 8 7 8 10 10 10 10 10 9 9 9 9 9 8 8 8 9 8 7 7 7 7 8 8 7 7 6
9 9 11 11 10 10 10 10 10 10 10 10 10 9 8 8 9 10 9 9 10 10 10 9 8 9 9 8 9 10 11 9 9 8 8 7 8 8 7 7 7 7 6
9 10 10 10 10 10 10 11 11 11 11 12 10 9 9 9 9 9 9 9 9 9 8 8 8 7 8 9 9 10 10 10 9 9 9 8 8 8 8 7 7 7 7
11 11 11 11 11 11 11 11 11 11 11 11 10 9 8 9 9 9 9 8 8 7 7 7 8 7 7 8 8 9 10 10 10 10 10 9 8 8 8 9 9 9 8
11 12 12 12 11 11 11 11 11 11 11 11 10 10 9 9 9 10 9 8 8 7 7 7 8 9 11 8 7 8 8 8 9 10 13 11 10 9 8 9 9 10 9
11 12 12 12 12 11 11 12 12 12 11 11 10 10 9 9 9 9 9 8 8 7 8 7 6 8 12 12 10 9 9 10 9 8 10 10 11 10 10 10 9 9 8
11 12 12 11 11 11 11 11 12 12 11 11 10 10 9 9 9 8 8 7 7 7 7 7 8 9 11 10 11 11 12 13 12 10 8 9 10 9 10 9 11 9 10
Wind_Direction
214 216 217 222 228 235 244 254 261 271 271 280 287 291 293 283 275 271 281 281 275 262 246 246 242 248 238 228 236 251 259 263 250 233 198 221 210 217 186 226 217 204 166
218 220 224 226 227 235 240 246 253 263 267 275 279 279 283 281 279 279 279 274 269 269 256 244 236 223 233 237 230 235 243 251 250 242 216 224 242 211 210 217 219 202 187
215 223 228 230 234 241 249 250 253 260 264 263 266 271 273 274 273 270 271 270 266 267 261 250 249 235 225 219 225 229 234 236 244 239 229 231 245 218 212 212 203 198 214
216 225 234 241 243 249 251 252 252 257 261 264 262 264 268 268 265 264 261 262 260 253 252 250 249 246 242 231 225 226 230 231 231 227 222 222 224 225 223 214 206 185 206
224 233 245 249 247 251 251 249 249 253 258 260 264 262 262 263 266 272 265 262 263 257 247 243 241 253 291 279 265 243 229 230 225 224 220 221 215 213 219 219 218 195 186
244 257 268 271 261 255 253 252 253 251 253 255 258 259 260 256 254 255 267 264 260 258 255 249 232 221 225 227 245 259 266 254 239 225 226 224 223 217 221 226 217 212 200
268 281 284 279 275 267 259 254 250 248 248 252 254 254 255 248 230 238 242 260 261 262 262 255 244 232 230 230 215 218 231 244 259 262 245 239 235 220 219 221 219 229 231
302 299 298 290 284 280 270 260 257 256 250 249 251 253 254 250 228 235 235 248 254 252 251 251 248 242 232 244 235 228 227 220 223 236 247 249 243 234 232 236 232 226 218
307 300 297 291 289 282 273 268 262 260 258 252 251 251 250 245 221 227 234 246 245 246 244 244 249 243 205 229 240 235 228 217 197 236 302 308 22 245 244 215 202 209 211
310 302 298 291 283 278 276 275 269 258 258 259 255 252 251 253 223 218 232 245 245 243 237 232 228 248 220 216 237 235 231 222 209 195 202 202 208 193 208 224 216 219 218
311 302 294 287 280 277 277 274 273 265 260 259 258 253 251 252 233 216 224 242 246 246 239 233 221 202 219 218 241 247 244 248 227 217 207 199 201 197 198 214 219 230 228
308 298 292 287 281 276 273 272 271 270 262 258 259 259 253 247 243 226 221 231 250 248 245 240 220 190 209 219 228 230 220 231 230 214 208 204 200 195 191 192 195 206 239
307 301 296 291 283 278 274 271 269 266 265 264 262 263 259 252 238 227 225 226 230 243 248 244 228 196 207 213 213 213 210 219 221 216 213 208 202 194 184 177 174 160 145
307 304 299 295 291 285 279 272 270 267 267 268 267 267 266 257 250 235 232 230 223 230 238 222 206 205 222 229 207 207 218 221 224 220 213 200 187 182 186 181 179 176 172
307 305 302 300 296 287 279 274 270 267 268 270 272 269 268 264 258 255 251 244 235 231 229 226 222 215 216 219 217 211 209 208 212 214 208 199 194 193 189 188 192 192 196
309 309 304 299 294 288 286 282 266 262 259 252 258 263 266 268 273 253 248 253 247 228 227 229 225 220 219 218 216 211 208 209 209 209 206 202 199 196 189 184 190 197 196
305 305 303 298 294 290 287 286 287 277 258 251 249 249 252 259 258 249 242 241 232 213 225 232 229 224 220 218 215 213 210 205 203 205 205 202 200 197 192 188 187 190 191
303 301 297 293 291 289 287 285 284 286 285 279 259 248 246 247 247 242 233 229 228 217 228 231 230 226 221 217 212 210 205 199 200 202 202 200 197 195 192 190 187 187 186
302 299 297 295 290 287 286 285 283 282 282 283 282 269 250 248 244 236 221 232 234 226 226 229 229 225 221 215 211 207 203 198 195 194 197 196 193 192 192 190 184 176 189
295 292 291 291 289 287 285 286 285 283 283 282 279 278 273 263 258 245 233 237 238 235 230 228 227 224 219 212 205 202 200 196 193 194 191 192 191 192 191 189 186 185 192
294 292 287 285 285 288 287 285 284 282 280 279 278 277 270 265 260 253 244 239 239 238 233 229 224 220 217 209 204 200 198 195 193 192 188 188 188 187 186 186 187 188 184
293 291 290 288 288 287 288 286 283 280 280 280 280 276 262 261 262 258 249 244 242 240 237 232 225 217 211 207 203 201 197 193 190 190 186 182 185 184 181 181 182 182 181
287 289 289 287 286 284 282 282 281 282 282 280 278 276 268 263 261 259 256 252 245 237 232 228 225 218 212 209 204 201 199 194 189 186 183 180 181 182 180 180 181 181 182
288 287 288 288 286 284 283 283 283 282 281 280 278 273 269 266 265 262 259 254 243 234 229 227 225 218 212 206 201 199 198 190 185 184 183 179 178 178 179 178 180 182 182
288 289 289 288 287 285 284 283 282 280 278 277 274 272 270 267 264 262 258 252 243 232 228 226 223 216 212 206 200 193 175 169 175 176 178 178 176 176 177 177 177 177 178
289 289 288 287 286 285 285 284 284 283 280 278 275 271 270 267 264 260 255 249 241 232 226 222 219 218 213 208 199 182 165 163 164 167 175 175 174 174 174 173 175 176 178